• In Austria
  • List of Countries
  • For 7 days
  • Water Temperature
  • Satellite Maps
  • Weather Map
  • News
  • Weather Widgets
  • user-avatar
    Login

    Hourly Weather Obock

    Today, 21 September, Friday

    Time Temperature Precipitation Wind Pressure Humidity
    00:00 +35°C° 0 mm 2 mps 752 mmHg 60%
    01:00 +35°C° 0 mm 2 mps 752 mmHg 62%
    02:00 +35°C° 0 mm 2 mps 752 mmHg 64%
    03:00 +34°C° 0 mm 2 mps 752 mmHg 66%
    04:00 +34°C° 0 mm 2 mps 752 mmHg 68%
    05:00 +34°C° 0 mm 2 mps 752 mmHg 70%
    06:00 +32°C° 0 mm 2 mps 752 mmHg 72%
    07:00 +34°C° 0 mm 2 mps 753 mmHg 68%
    08:00 +35°C° 0 mm 2 mps 753 mmHg 63%
    09:00 +36°C° 0 mm 3 mps 753 mmHg 59%
    10:00 +37°C° 0 mm 3 mps 753 mmHg 54%
    11:00 +38°C° 0 mm 3 mps 753 mmHg 50%
    12:00 +40°C° 0 mm 4 mps 753 mmHg 46%
    13:00 +40°C° 0 mm 4 mps 752 mmHg 44%
    14:00 +41°C° 0 mm 4 mps 752 mmHg 42%
    15:00 +41°C° 0 mm 4 mps 751 mmHg 41%
    16:00 +40°C° 0 mm 3 mps 751 mmHg 40%
    17:00 +39°C° 0 mm 3 mps 751 mmHg 39%
    18:00 +39°C° 0 mm 2 mps 751 mmHg 39%
    19:00 +38°C° 0 mm 2 mps 751 mmHg 40%
    20:00 +38°C° 0 mm 2 mps 752 mmHg 41%
    21:00 +37°C° 0 mm 3 mps 752 mmHg 42%
    22:00 +37°C° 0 mm 2 mps 752 mmHg 44%
    23:00 +36°C° 0 mm 2 mps 752 mmHg 46%

    Tomorrow, 22 September, Saturday

    Time Temperature Precipitation Wind Pressure Humidity
    00:00 +35°C° 0 mm 1 mps 752 mmHg 49%
    01:00 +35°C° 0 mm 1 mps 752 mmHg 50%
    02:00 +34°C° 0 mm 1 mps 752 mmHg 51%
    03:00 +34°C° 0 mm 1 mps 752 mmHg 52%
    04:00 +34°C° 0 mm 1 mps 752 mmHg 54%
    05:00 +33°C° 0 mm 1 mps 752 mmHg 57%
    06:00 +33°C° 0 mm 1 mps 752 mmHg 59%
    07:00 +35°C° 0 mm 2 mps 753 mmHg 56%
    08:00 +36°C° 0 mm 2 mps 754 mmHg 53%
    09:00 +36°C° 0 mm 3 mps 754 mmHg 50%
    10:00 +38°C° 0 mm 3 mps 754 mmHg 44%
    11:00 +39°C° 0 mm 3 mps 754 mmHg 39%
    12:00 +40°C° 0 mm 3 mps 753 mmHg 34%
    13:00 +42°C° 0 mm 4 mps 752 mmHg 34%
    14:00 +42°C° 0 mm 5 mps 752 mmHg 33%
    15:00 +42°C° 0 mm 5 mps 751 mmHg 33%
    16:00 +41°C° 0 mm 5 mps 751 mmHg 39%
    17:00 +39°C° 0 mm 5 mps 751 mmHg 44%
    18:00 +38°C° 0 mm 6 mps 751 mmHg 49%
    19:00 +37°C° 0 mm 5 mps 752 mmHg 53%
    20:00 +36°C° 0 mm 4 mps 752 mmHg 57%
    21:00 +35°C° 0 mm 4 mps 753 mmHg 61%
    22:00 +35°C° 0 mm 4 mps 753 mmHg 62%
    23:00 +35°C° 0 mm 3 mps 753 mmHg 63%

    Day after tomorrow, 23 September, Sunday

    Time Temperature Precipitation Wind Pressure Humidity
    00:00 +34°C° 0 mm 3 mps 753 mmHg 63%
    01:00 +34°C° 0 mm 3 mps 753 mmHg 66%
    02:00 +34°C° 0 mm 3 mps 753 mmHg 69%
    03:00 +33°C° 0 mm 3 mps 753 mmHg 71%
    04:00 +33°C° 0 mm 3 mps 753 mmHg 73%
    05:00 +33°C° 0 mm 3 mps 753 mmHg 74%
    06:00 +32°C° 0 mm 2 mps 754 mmHg 76%
    07:00 +34°C° 0 mm 2 mps 754 mmHg 68%
    08:00 +35°C° 0 mm 3 mps 755 mmHg 61%
    09:00 +36°C° 0 mm 3 mps 755 mmHg 53%
    10:00 +37°C° 0 mm 3 mps 755 mmHg 47%
    11:00 +38°C° 0 mm 3 mps 754 mmHg 41%
    12:00 +40°C° 0 mm 4 mps 754 mmHg 34%
    13:00 +41°C° 0 mm 4 mps 753 mmHg 33%
    14:00 +41°C° 0 mm 4 mps 752 mmHg 32%
    15:00 +41°C° 0 mm 5 mps 751 mmHg 31%
    16:00 +40°C° 0 mm 4 mps 752 mmHg 35%
    17:00 +38°C° 0 mm 4 mps 752 mmHg 40%
    18:00 +37°C° 0 mm 4 mps 752 mmHg 44%
    19:00 +36°C° 0 mm 3 mps 752 mmHg 48%
    20:00 +36°C° 0 mm 3 mps 753 mmHg 51%
    21:00 +35°C° 0 mm 3 mps 753 mmHg 54%
    22:00 +35°C° 0 mm 3 mps 753 mmHg 56%
    23:00 +34°C° 0 mm 3 mps 753 mmHg 57%

    24 September, Monday

    Time Temperature Precipitation Wind Pressure Humidity
    00:00 +34°C° 0 mm 3 mps 753 mmHg 59%
    01:00 +34°C° 0 mm 2 mps 753 mmHg 58%
    02:00 +34°C° 0 mm 2 mps 752 mmHg 58%
    03:00 +34°C° 0 mm 2 mps 752 mmHg 57%
    04:00 +34°C° 0 mm 2 mps 752 mmHg 56%
    05:00 +33°C° 0 mm 1 mps 752 mmHg 55%
    06:00 +32°C° 0 mm 1 mps 753 mmHg 53%
    07:00 +35°C° 0 mm 2 mps 753 mmHg 48%
    08:00 +36°C° 0 mm 3 mps 754 mmHg 43%
    09:00 +37°C° 0 mm 4 mps 754 mmHg 38%
    10:00 +38°C° 0 mm 4 mps 753 mmHg 36%
    11:00 +40°C° 0 mm 4 mps 753 mmHg 33%
    12:00 +41°C° 0 mm 4 mps 752 mmHg 30%
    13:00 +41°C° 0 mm 4 mps 751 mmHg 30%
    14:00 +42°C° 0 mm 5 mps 751 mmHg 29%
    15:00 +42°C° 0 mm 5 mps 750 mmHg 28%
    16:00 +41°C° 0 mm 5 mps 750 mmHg 31%
    17:00 +40°C° 0 mm 5 mps 750 mmHg 34%
    18:00 +38°C° 0 mm 4 mps 750 mmHg 36%
    19:00 +37°C° 0 mm 4 mps 751 mmHg 38%
    20:00 +37°C° 0 mm 3 mps 752 mmHg 41%
    21:00 +36°C° 0 mm 2 mps 752 mmHg 43%
    22:00 +36°C° 0 mm 2 mps 752 mmHg 44%
    23:00 +36°C° 0 mm 3 mps 752 mmHg 46%

    25 September, Tuesday

    Time Temperature Precipitation Wind Pressure Humidity
    00:00 +35°C° 0 mm 3 mps 752 mmHg 47%
    01:00 +35°C° 0 mm 3 mps 752 mmHg 51%
    02:00 +34°C° 0 mm 3 mps 751 mmHg 54%
    03:00 +34°C° 0 mm 4 mps 751 mmHg 57%
    04:00 +33°C° 0 mm 4 mps 752 mmHg 62%
    05:00 +33°C° 0 mm 3 mps 752 mmHg 67%
    06:00 +31°C° 0 mm 3 mps 753 mmHg 73%
    07:00 +33°C° 0 mm 4 mps 753 mmHg 68%
    08:00 +34°C° 0 mm 4 mps 754 mmHg 63%
    09:00 +35°C° 0 mm 4 mps 754 mmHg 58%
    10:00 +36°C° 0 mm 4 mps 754 mmHg 53%
    11:00 +37°C° 0 mm 4 mps 753 mmHg 48%
    12:00 +39°C° 0 mm 5 mps 752 mmHg 43%
    13:00 +38°C° 0 mm 4 mps 752 mmHg 44%
    14:00 +40°C° 0 mm 4 mps 751 mmHg 44%
    15:00 +40°C° 0 mm 4 mps 750 mmHg 45%
    16:00 +38°C° 0 mm 4 mps 750 mmHg 47%
    17:00 +38°C° 0 mm 4 mps 751 mmHg 49%
    18:00 +37°C° 0 mm 4 mps 751 mmHg 52%
    19:00 +37°C° 0 mm 4 mps 751 mmHg 56%
    20:00 +36°C° 0 mm 4 mps 752 mmHg 60%
    21:00 +35°C° 0 mm 3 mps 752 mmHg 64%
    22:00 +35°C° 0 mm 3 mps 752 mmHg 67%
    23:00 +34°C° 0 mm 3 mps 752 mmHg 69%

    26 September, Wednesday

    Time Temperature Precipitation Wind Pressure Humidity
    00:00 +34°C° 0 mm 3 mps 752 mmHg 71%
    01:00 +34°C° 0 mm 3 mps 752 mmHg 73%
    02:00 +33°C° 0 mm 3 mps 752 mmHg 74%
    03:00 +33°C° 0 mm 4 mps 751 mmHg 76%
    04:00 +33°C° 0.1 mm 4 mps 752 mmHg 78%
    05:00 +32°C° 0.1 mm 4 mps 753 mmHg 80%
    06:00 +32°C° 0.1 mm 4 mps 753 mmHg 83%
    07:00 +33°C° 0.1 mm 4 mps 753 mmHg 78%
    08:00 +34°C° 0.1 mm 4 mps 754 mmHg 73%
    09:00 +35°C° 0.1 mm 4 mps 754 mmHg 68%
    10:00 +36°C° 0.1 mm 4 mps 754 mmHg 64%
    11:00 +37°C° 0.1 mm 4 mps 753 mmHg 60%
    12:00 +38°C° 0.1 mm 4 mps 752 mmHg 56%
    13:00 +38°C° 0.1 mm 4 mps 752 mmHg 55%
    14:00 +38°C° 0.1 mm 4 mps 751 mmHg 54%
    15:00 +40°C° 0.1 mm 4 mps 750 mmHg 53%
    16:00 +38°C° 0 mm 4 mps 750 mmHg 56%
    17:00 +38°C° 0 mm 4 mps 750 mmHg 59%
    18:00 +37°C° 0 mm 4 mps 751 mmHg 61%
    19:00 +36°C° 0.3 mm 4 mps 751 mmHg 66%
    20:00 +35°C° 0.3 mm 4 mps 752 mmHg 70%
    21:00 +34°C° 0.3 mm 4 mps 752 mmHg 74%
    22:00 +34°C° 0.1 mm 4 mps 752 mmHg 76%
    23:00 +34°C° 0.1 mm 3 mps 752 mmHg 77%
    Show more